Home > Weather > Haldimand > Past weeks

Flag for Canada Weather for the Past 2 Weeks in Haldimand, Ontario, Canada

Now
23 °F

Light snow. Cloudy.


Feels Like: 10 °F
Forecast: 17 / 29 °F
Wind: 15 mph from Southwest

Location: Hamilton Airport

Current Time: Feb 10, 2016 at 8:46:36 AM

Latest Report: Feb 10, 2016 at 8:00 AM


Visibility: 1 mi

Pressure: 29.64 "Hg

Humidity: 86%

Dew point: 19 °F

Location of HaldimandLocation

Historic Weather in Haldimand — Graph

°F

Haldimand Temperature Yesterday

Maximum temperature yesterday: 34 °F (at 10:00 AM)
Minimum temperature yesterday: 28 °F (at 7:00 PM)
Average temperature yesterday: 32 °F

High & Low Weather Summary for the Past Weeks

 TemperatureHumidityPressure
High55 °F (Feb 3, 1:00 PM)100% (Jan 28, 8:00 PM)30.35 "Hg (Jan 28, 8:00 PM)
Low14 °F (Jan 30, 12:00 AM)45% (Feb 6, 2:00 PM)29.49 "Hg (Feb 9, 2:00 PM)
Average33 °F80%29.88 "Hg
* Reported Jan 26 7:00 AM — Feb 10 7:47 AM, Haldimand, Weather by CustomWeather, © 2016

Note: Actual official high and low records may vary slightly from our data, if they occured in-between our weather recording intervals... More about our weather records

Advertising

Haldimand Weather History for the Previous 24 Hours

 ConditionsComfort  
Time TempWeatherWind HumidityBarometerVisibility
7:47 AM
Wed, Feb 10
23 °FLight snow. Cloudy.15 mph86%29.64 "Hg1 mi
7:00 AM23 °FLight snow. Mostly cloudy.13 mph93%29.62 "Hg5 mi
6:00 AM25 °FLight snow. Mostly cloudy.14 mph86%29.60 "Hg3 mi
5:00 AM25 °FLight snow. Mostly cloudy.15 mph86%29.59 "Hg3 mi
4:00 AM27 °FLight snow. Mostly cloudy.12 mph86%29.57 "Hg6 mi
3:00 AM27 °FLight snow. Mostly cloudy.13 mph86%29.56 "Hg6 mi
2:00 AM27 °FLight snow. Overcast.14 mph86%29.54 "Hg6 mi
1:00 AM27 °FLight snow. Mostly cloudy.17 mph93%29.53 "Hg3 mi
12:00 AM28 °FLight snow. Overcast.16 mph86%29.52 "Hg15 mi
11:00 PM
Tue, Feb 9
30 °FLight snow. Mostly cloudy.14 mph86%29.50 "Hg6 mi
10:00 PM28 °FLight snow. Low clouds.12 mph93%29.51 "Hg5 mi
9:00 PM28 °FSnow flurries. Mostly cloudy.12 mph93%29.52 "Hg3 mi
8:00 PM28 °FSnow flurries. Mostly cloudy.15 mph86%29.54 "Hg12 mi
7:50 PM28 °FSnow flurries. Overcast.13 mph86%29.54 "Hg15 mi
7:00 PM28 °FMostly cloudy.14 mph86%29.54 "Hg15 mi
6:00 PM30 °FMostly cloudy.14 mph80%29.53 "Hg15 mi
5:00 PM30 °FMore clouds than sun.13 mph80%29.52 "Hg15 mi
4:00 PM32 °FPartly sunny.13 mph87%29.49 "Hg15 mi
3:00 PM32 °FLight snow. Mostly cloudy.10 mph93%29.49 "Hg2 mi
2:00 PM34 °FMostly cloudy.14 mph87%29.49 "Hg15 mi
1:00 PM34 °FMore clouds than sun.12 mph93%29.50 "Hg15 mi
12:47 PM34 °FMostly cloudy.14 mph87%29.51 "Hg15 mi
12:00 PM34 °FLight snow. Mostly cloudy.14 mph93%29.52 "Hg12 mi
11:56 AM34 °FLight snow. Mostly cloudy.16 mph87%29.52 "Hg12 mi
10:00 AM34 °FBroken clouds.6 mph87%29.53 "Hg8 mi
9:00 AM32 °FMostly cloudy.5 mph93%29.53 "Hg8 mi
8:00 AM32 °FLight snow. Cloudy.7 mph93%29.52 "Hg6 mi
Weather by CustomWeather, © 2016

See weather overviewHow to use our weather pages